Starlink 32637

operational
NORAD ID: 62032 Int'l Des: 2024-216 Owner: SPXS Country: US Constellation: starlink
LEOCIRCULAR

Über Starlink 32637

Beschreibung wird geladen...

Live-Position

3D-Globus wird geladen...

Nächste Überflüge

Höhenverlauf

Altitude vs Time

uPlot chart will show altitude changes over time

Zweizeiliger Elementsatz

1 62032U 24216A 25352.43689260 .00030313 00000-0 11061-2 0 9994
2 62032 43.0013 354.8093 0001119 274.2090 85.8634 15.27594804 61459
Epoch: 18. Dez. 2025 • Age: 12 hours

Aktueller Status

Höhe 483.5 km
Geschwindigkeit 7.63 km/s
Subsatellitenpunkt -5.30°S, 115.61°E
Startdatum 21. Nov. 2024
Alter 1 years
Typ internet

Technische Details

Klassifizierung Payload
Masse 730.00 kg
Trockenmasse 700.00 kg
Gesamtmasse 730.00 kg
Länge 0.30 m
Durchmesser 4.10 m
Spannweite 29.00 m
Form Box + pan
Hersteller SPXS
Bus-Typ Starlink V2M
Phasenstatus In Orbit
Besitzer/Staat SPXS/US

Große Konstellationen

Loading constellations...